#timestamp,LO_Frequency,Hit,StdDev 
1510963215.2,286046998.7,N
1510963235.0,286046998.7,N
1510963235.9,286046998.7,N
1510963255.8,286046998.9,N
1510963275.6,286046998.6,N
1510963295.4,286046999.5,N
1510963315.3,286046999.1,N
1510963335.1,286047000.5,N
1510963355.8,286046999.7,N
1510963375.7,286047000.5,N
1510963395.5,286047002.8,N
1510963415.4,286047002.4,N
1510963435.2,286046999.9,N
1510963455.0,286046998.1,N
1510963455.9,286046998.1,N
1510963475.8,286047001.1,N
1510963495.6,286047000.7,N
1510963515.5,286047000.3,N
1510963535.3,286047002.3,N
1510963555.1,286047000.7,N
1510963575.9,286047000.1,N
1510963595.7,286046999.9,N
1510963615.5,286047000.7,N
1510963635.4,286047002.7,N
1510963655.2,286047002.8,N
1510963675.1,286047002.1,N
1510963676.0,286047002.1,N
1510963695.8,286047002.0,N
1510963715.6,286047001.7,N
1510963735.5,286047002.6,N
1510963755.3,286047001.8,N
1510963775.1,286047000.0,N
1510963795.9,286047000.5,N
1510963815.7,286047002.4,N
1510963835.6,286047002.4,N
1510963855.4,286047002.0,N
1510963875.2,286047002.0,N
1510963895.1,286047003.6,N
1510963896.0,286047003.6,N
1510963915.8,286047003.6,N
1510963935.7,286047003.4,N
1510963955.5,286047005.7,Y
1510963975.3,286047003.6,P
1510963995.2,286047004.3,P
1510964015.0,286047002.3,N
1510964015.9,286047002.3,N
1510964035.7,286047002.7,N
1510964055.6,286047000.1,N
1510964075.4,286047001.6,N
1510964095.3,286047001.4,N
1510964115.1,286047003.8,Y
1510964116.0,286047003.8,P
1510964135.8,286047001.8,N
1510964155.7,286047001.6,N
1510964175.5,286047001.7,N
1510964195.3,286047002.4,N
1510964215.2,286047002.7,Y
1510964235.0,286046997.3,P
1510964235.9,286046997.3,N
1510964255.8,286046997.6,N
1510964275.6,286046993.4,Y
1510964295.4,286046997.5,P
1510964315.3,286046994.9,P
1510964335.1,286046997.4,N
1510964355.9,286046999.6,N
1510964375.7,286046997.1,N
1510964395.5,286046996.8,N
1510964415.4,286046999.4,N
1510964435.2,286046996.6,N
1510964455.1,286046999.3,N
1510964456.0,286046999.3,N
1510964475.8,286046998.4,N
1510964495.6,286047001.2,N
1510964515.5,286046997.0,N
1510964535.3,286046997.7,N
1510964555.1,286046996.8,N
1510964575.9,286046995.4,Y
1510964595.7,286046998.6,P
1510964615.6,286046996.6,P
1510964635.4,286047000.3,N
1510964655.2,286047002.4,N
1510964675.1,286047000.4,N
1510964676.0,286047000.4,N
1510964695.8,286047002.0,N
1510964715.7,286047002.8,N
1510964735.5,286047001.5,N
1510964755.3,286047001.3,N
1510964775.2,286047003.9,N
1510964795.0,286047002.6,N
1510964795.9,286047002.6,N
1510964815.7,286047002.6,N
1510964835.6,286047000.3,N
1510964855.4,286047000.5,N
1510964875.3,286047001.8,N
1510964895.1,286047003.8,N
1510964896.0,286047003.8,N
1510964915.8,286047002.6,N
1510964935.7,286047003.9,N
1510964955.5,286047002.4,N
1510964975.3,286046999.8,N
1510964995.2,286047002.8,N
1510965015.0,286046999.9,N
1510965015.9,286046999.9,N
1510965035.8,286046999.9,N
1510965055.6,286047002.6,N
1510965075.4,286047002.7,N
1510965095.3,286047002.1,N
1510965115.1,286047000.4,N
1510965135.8,286047000.2,N
1510965155.7,286047001.0,N
1510965175.5,286047000.8,N
1510965195.4,286046999.8,N
1510965215.2,286047002.4,N
1510965235.0,286047003.9,N
1510965235.9,286047003.9,N
1510965255.8,286047003.8,N
1510965275.6,286047002.7,N
1510965295.5,286046999.9,N
1510965315.3,286046998.5,N
1510965335.1,286046999.7,N
1510965355.9,286047004.3,N
1510965375.7,286047004.4,N
1510965395.5,286046999.8,N
1510965415.4,286047002.2,N
1510965435.2,286047000.9,N
1510965455.1,286047002.6,N
1510965456.0,286047002.6,N
1510965475.8,286047002.5,N
1510965495.6,286047002.1,N
1510965515.5,286047002.1,N
1510965535.3,286047001.4,N
1510965555.1,286047003.9,N
1510965575.9,286047004.1,N
1510965595.7,286047003.2,N
1510965615.6,286047003.4,N
1510965635.4,286047002.9,N
1510965655.2,286047001.8,N
1510965675.1,286047002.2,N
1510965676.0,286047002.2,N
1510965695.8,286047001.7,N
1510965715.7,286047002.1,N
1510965735.5,286047004.0,N
1510965755.3,286047003.6,N
1510965775.2,286047002.2,N
1510965795.0,286047001.8,N
1510965795.9,286047001.8,N
1510965815.7,286047003.7,N
1510965835.6,286047004.1,N
1510965855.4,286047003.9,N
1510965875.3,286047003.6,N
1510965895.1,286047004.0,Y
1510965896.0,286047004.0,P
1510965915.8,286046999.3,N
1510965935.7,286046998.8,N
1510965955.5,286046999.3,N
1510965975.3,286046998.4,N
1510965995.2,286047000.3,N
1510966015.0,286047001.9,N
1510966015.9,286047001.9,N
1510966035.8,286047002.6,N
1510966055.6,286047002.8,N
1510966075.4,286047002.7,N
1510966095.3,286047001.3,N
1510966115.1,286047001.4,N
1510966135.9,286047002.4,N
1510966155.7,286047002.3,N
1510966175.5,286047002.5,N
1510966195.4,286047004.4,N
1510966215.2,286047000.1,N
1510966235.1,286047000.8,N
1510966236.0,286047000.8,N
1510966255.8,286047000.6,N
1510966275.6,286047000.0,N
1510966295.5,286047000.9,N
1510966315.3,286047001.1,N
1510966335.2,286047002.8,N
1510966355.9,286047002.8,N
1510966375.7,286047000.2,N
1510966395.6,286046999.8,N
1510966415.4,286046999.9,N
1510966435.2,286047000.5,N
1510966455.1,286047000.3,N
1510966456.0,286047000.3,N
1510966475.8,286047000.6,N
1510966495.7,286047000.0,N
1510966515.5,286047000.9,N
1510966535.3,286047000.2,N
1510966555.2,286047000.1,N
1510966575.0,286047002.1,N
1510966575.9,286047002.1,N
1510966595.8,286047002.3,N
1510966615.6,286047001.6,N
1510966635.4,286047002.0,N
1510966655.3,286047002.6,N
1510966675.1,286047002.2,N
1510966695.9,286047000.0,N
1510966715.7,286046999.8,N
1510966735.5,286047001.2,N
1510966755.4,286047000.8,N
1510966775.2,286047000.3,N
1510966795.0,286046998.5,N
1510966796.0,286046998.5,N
